Location: Le Petit-Vavre
(46.5081°N, 1.5239°E)
Time: 19:34:40
(UTC+00:00)

ATLAS CENTAUR R/B - Pass Details

Date: 03 March 2021
Orbit: 475 x 670 km, 64.7° (Epoch: 30 March)

Event Time Altitude Azimuth Distance (km) Brightness Sun altitude
Rises 19:56:35 0° 239° (WSW) 2,519 5.3 -23.6°
Reaches altitude 10° 19:58:50 10° 249° (WSW) 1,642 4.4 -24.0°
Maximum altitude 20:02:10 33° 315° (NW) 821 2.7 -24.5°
Enters shadow 20:03:16 27° 351° (N) 949 2.7 -24.7°
